COSMOS 2441

Satellite information

Favourite Embed

Satellite Type and Status

PAYLOADIN ORBIT

Key statistics

Satellite COSMOS 2441 at a glance.

Uptime

6130

Days in orbit

Revolutions

≈ 14.5

Per day

Orbit

SSO

Sun Synchronous Orbit

Inclination

98.3

Latest

Satellite identification and parameters

Extended collection of information and parameters for COSMOS 2441.

Object identification

Identified? True

Debris? False

Object name: COSMOS 2441

International designator: 2008-037A

Object number (NORAD): 33272

Object ID (CCSDS): 33272

Country: COMMONWEALTH OF INDEPENDENT STATES (CIS)

Current information (Y/N): Y

RCS size: LARGE

Orbital parameters

Period: 99.109 minutes

Inclination: 98.2823 deg

SMA: 7094.158 km

Apoapsis: 728.02 km

Periapsis: 704.026 km

RAAN: 73.5205 deg

Eccentricy: 0.0016911

Argument of periapsis: 142.7838 deg

Mean anomaly: 217.4533 deg

Mean motion: 14.52952687 rev/day

Mean motion (dot): 0.00000251 rev/day2

B* drag term: 0.000071731 1/REarth

Two-line elements (TLE)

Creation date: May 8, 2025, 3:01 a.m.

Reference frame: TEME

Reference center: EARTH

Epoch: May 7, 2025, 8:52 p.m. UTC

TLE line 0: 0 COSMOS 2441

TLE line 1: 1 33272U 08037A 25127.86980696 .00000251 00000-0 71731-4 0 9995

TLE line 2: 2 33272 98.2823 73.5205 0016911 142.7838 217.4533 14.52952687889182

Live tracking on map

Real-time ground track for satellite COSMOS 2441.

In-orbit conjunctions

A list of the most updated potential collisions computed for object COSMOS 2441.

Target Orbit TCA Probability of collision Miss distance Type
COSMOS 1275 DEB LEO 2025-04-27 04:14:46 0.0002284663 940.0 (m) DEBRIS
NOAA 16 DEB SSO 2025-04-04 15:38:48 0.0005013912 265.0 (m) DEBRIS
CZ-6A DEB SSO 2024-12-10 17:54:12 0.0003245799 392.0 (m) DEBRIS
COSMOS 2251 DEB LEO 2024-09-28 13:02:01 0.0004444293 648.0 (m) DEBRIS
FENGYUN 1C DEB SSO 2024-08-29 15:53:03 0.0008907053 511.0 (m) DEBRIS

Associated space launch

Electro-optical reconnaissance satellite

COSMOS 2441 was lifted into orbit during the mission ‘Soyuz 2.1b | Persona 1’, on board a Soyuz 2.1b space rocket.

The launch took place on July 26, 2008, 6:31 p.m. from 43/4 (43R).

For more information about the launch, click the button.

Launch to space Soyuz 2.1b | Persona 1
Soyuz 2.1b | Persona 1

Agency: N/A

Status: Launch Successful

Launch date: July 26, 2008, 6:31 p.m. UTC

Rocket: Soyuz 2.1b

Launch pad: 43/4 (43R)

Location: Plesetsk Cosmodrome, Russian Federation

...

Latest news about this satellite

There are no fresh news available about this satellite. Check back as we update our databases every day.


Newsletter sign-up

Weekly statistics, charts and insights to help you stay on top of the space industry.